DW0000 Weather Reports


Display with metric or nautical units.
time (UTC)temp
F
wind
direction
speed
MPH
gust
MPH
rain 1hr
in
rain 24hr
in
rain mn
in
humidity
%
barometer
mb
20260831125006 52 237 24.0 36.0 0.04 0.18 0.03 93 1011.5
20260831124506 52 241 21.0 38.0 0.05 0.17 0.02 92 1011.5
20260831124005 53 232 25.0 40.0 0.05 0.17 0.02 92 1011.7
20260831123507 53 242 25.0 33.0 0.04 0.16 0.01 93 1011.4
20260831123006 53 247 17.0 23.0 0.03 0.15 0.00 93 1011.4
20260831120508 54 230 24.0 35.0 0.03 0.15 0.00 91 1011.3
20260831115006 55 239 26.0 36.0 0.02 0.14 0.14 87 1011.0
20260831113008 55 240 22.0 33.0 0.00 0.13 0.12 83 1011.0
20260831110006 55 259 16.0 30.0 0.00 0.13 0.12 85 1010.7
20260831105506 55 251 18.0 30.0 0.00 0.13 0.12 85 1010.8
20260831104506 55 254 19.0 32.0 0.00 0.13 0.12 84 1010.5
20260831103007 55 262 13.0 32.0 0.00 0.13 0.12 85 1010.4
20260831102506 55 243 18.0 30.0 0.00 0.13 0.12 86 1010.4
20260831101006 55 259 16.0 26.0 0.00 0.13 0.12 86 1010.5
20260831100006 55 245 22.0 33.0 0.00 0.13 0.12 85 1010.5
20260831095505 55 249 21.0 31.0 0.00 0.13 0.12 86 1010.5
20260831094505 55 249 17.0 28.0 0.00 0.13 0.12 88 1010.5
20260831094006 55 266 18.0 29.0 0.00 0.13 0.12 88 1010.3
20260831093507 55 258 17.0 29.0 0.00 0.14 0.12 88 1010.1
20260831091505 55 251 21.0 33.0 0.00 0.14 0.12 87 1010.1
20260831084506 55 248 21.0 35.0 0.00 0.14 0.12 89 1010.0
20260831083507 55 258 14.0 24.0 0.00 0.14 0.12 88 1010.1
20260831082008 56 250 17.0 26.0 0.01 0.14 0.12 91 1010.1
20260831081505 55 255 18.0 30.0 0.01 0.14 0.12 91 1010.2
20260831080507 55 246 17.0 25.0 0.01 0.14 0.12 92 1010.1
20260831075007 55 251 16.0 29.0 0.01 0.14 0.12 91 1009.9
20260831074506 55 253 16.0 36.0 0.01 0.14 0.12 90 1009.9
20260831073008 56 249 16.0 31.0 0.00 0.13 0.11 90 1009.8
20260831072007 56 250 17.0 31.0 0.00 0.13 0.11 89 1009.7
20260831071506 56 249 18.0 35.0 0.00 0.13 0.11 89 1009.7
20260831070505 56 263 16.0 36.0 0.00 0.13 0.11 88 1009.4
20260831065505 56 259 12.0 35.0 0.00 0.13 0.11 87 1009.4
20260831064505 56 262 21.0 33.0 0.00 0.13 0.11 84 1009.3
20260831063505 56 252 20.0 29.0 0.00 0.13 0.11 84 1009.1
20260831062005 56 247 21.0 40.0 0.00 0.13 0.11 85 1009.2
20260831061505 56 240 24.0 40.0 0.00 0.13 0.11 85 1009.2
20260831060005 56 247 19.0 33.0 0.00 0.13 0.11 86 1009.1
20260831053506 56 245 27.0 43.0 0.00 0.13 0.11 88 1008.6
20260831053007 56 249 22.0 38.0 0.00 0.13 0.11 88 1008.6
20260831051505 57 256 19.0 33.0 0.00 0.13 0.11 86 1008.9
20260831051006 57 262 17.0 41.0 0.00 0.13 0.11 83 1008.8
20260831044005 58 257 18.0 37.0 0.00 0.13 0.11 81 1008.4
20260831042005 57 280 18.0 41.0 0.00 0.13 0.11 84 1008.4
20260831040005 57 261 18.0 37.0 0.00 0.13 0.11 84 1008.5
20260831035005 57 272 22.0 37.0 0.00 0.13 0.11 84 1008.5
20260831034506 58 249 24.0 39.0 0.00 0.13 0.11 84 1008.4
20260831031505 59 267 14.0 30.0 0.00 0.13 0.11 87 1008.3
20260831031005 59 253 18.0 35.0 0.00 0.13 0.11 86 1008.2
20260831030505 59 253 17.0 32.0 0.00 0.13 0.11 86 1008.2
20260831024505 58 253 18.0 33.0 0.04 0.13 0.11 90 1008.6
20260831024007 58 265 16.0 31.0 0.04 0.13 0.11 90 1008.7
20260831023505 58 261 17.0 31.0 0.04 0.13 0.11 90 1008.6
20260831022506 57 257 21.0 33.0 0.04 0.13 0.11 91 1008.5
20260831021505 55 268 20.0 38.0 0.04 0.13 0.11 91 1008.4
20260831020005 56 276 15.0 39.0 0.04 0.13 0.11 92 1008.8
20260831015005 56 248 22.0 33.0 0.00 0.09 0.08 87 1009.3
20260831014506 58 241 21.0 37.0 0.00 0.09 0.08 84 1009.3
20260831014006 59 258 20.0 35.0 0.00 0.09 0.08 84 1008.8
20260831012006 60 266 16.0 30.0 0.00 0.09 0.08 80 1008.9
20260831010505 58 250 22.0 38.0 0.00 0.09 0.08 79 1009.4
20260831005005 60 256 22.0 38.0 0.00 0.09 0.08 79 1009.3
20260831004505 61 265 21.0 35.0 0.00 0.09 0.08 78 1009.2
20260831003005 61 249 21.0 40.0 0.00 0.09 0.08 82 1009.3
20260831002506 60 254 26.0 40.0 0.00 0.09 0.08 84 1009.2
20260831002005 60 275 17.0 33.0 0.00 0.09 0.07 85 1009.5
20260831001507 59 281 14.0 33.0 0.00 0.09 0.07 85 1009.3
20260831001004 60 251 22.0 37.0 0.00 0.09 0.07 82 1009.5
20260831000506 61 259 14.0 31.0 0.00 0.09 0.07 82 1009.1
20260831000005 61 264 17.0 35.0 0.00 0.09 0.07 81 1009.3
20260830235505 61 251 18.0 36.0 0.00 0.09 0.07 82 1009.3
20260830235005 61 257 21.0 31.0 0.00 0.09 0.07 81 1009.4
20260830230506 60 263 15.0 31.0 0.00 0.09 0.07 82 1009.6
20260830225505 60 262 18.0 30.0 0.00 0.09 0.07 82 1009.5
20260830223505 59 291 15.0 37.0 0.00 0.09 0.07 86 1009.5
20260830223005 58 258 17.0 30.0 0.00 0.09 0.07 86 1009.6
20260830221505 60 254 16.0 33.0 0.00 0.09 0.07 81 1009.6
20260830221008 59 256 18.0 32.0 0.00 0.09 0.07 81 1009.6
20260830220505 59 247 24.0 33.0 0.00 0.09 0.07 80 1009.7
20260830220005 59 266 15.0 36.0 0.00 0.09 0.07 80 1009.5
20260830215506 59 253 18.0 31.0 0.00 0.09 0.07 81 1009.5
20260830215005 59 257 14.0 29.0 0.00 0.09 0.07 82 1009.7
20260830214006 58 253 18.0 33.0 0.00 0.09 0.07 84 1009.8
20260830213504 58 257 15.0 28.0 0.00 0.09 0.07 85 1009.7
20260830212006 58 251 15.0 31.0 0.00 0.09 0.07 85 1009.8
20260830210506 57 259 13.0 25.0 0.00 0.09 0.07 87 1009.6
20260830205504 57 281 10.0 22.0 0.00 0.09 0.07 89 1009.7
20260830204504 56 252 14.0 24.0 0.01 0.09 0.07 90 1009.8
20260830203004 55 260 15.0 29.0 0.01 0.09 0.07 93 1009.6
20260830202005 55 266 13.0 23.0 0.01 0.09 0.07 94 1009.6
20260830200006 54 272 10.0 22.0 0.01 0.09 0.07 92 1009.7
20260830195504 55 264 16.0 29.0 0.01 0.09 0.07 92 1009.6
20260830195005 55 260 17.0 29.0 0.01 0.09 0.07 90 1009.6
20260830194505 55 257 18.0 29.0 0.00 0.08 0.06 90 1009.5
20260830194007 55 256 14.0 23.0 0.00 0.08 0.06 89 1009.6
20260830193504 55 282 16.0 26.0 0.00 0.08 0.06 89 1009.4
20260830193005 55 252 16.0 29.0 0.00 0.08 0.06 89 1009.4
20260830191504 55 254 14.0 28.0 0.00 0.08 0.06 90 1009.7
20260830190505 54 251 18.0 29.0 0.00 0.08 0.06 90 1009.4
20260830190005 55 271 15.0 30.0 0.00 0.08 0.06 90 1009.4
20260830185506 55 264 20.0 37.0 0.00 0.08 0.06 90 1009.1
20260830184004 55 256 12.0 26.0 0.00 0.08 0.06 89 1008.8
20260830183506 55 256 17.0 29.0 0.00 0.08 0.06 89 1009.0
20260830183005 54 270 17.0 25.0 0.00 0.08 0.06 88 1008.8
20260830181506 54 264 14.0 25.0 0.00 0.08 0.06 88 1008.7
20260830181005 54 269 10.0 18.0 0.00 0.08 0.06 87 1008.7
20260830180006 54 255 14.0 21.0 0.00 0.08 0.06 87 1008.7
20260830174004 54 251 16.0 29.0 0.00 0.08 0.06 85 1008.7
20260830173506 54 244 19.0 33.0 0.00 0.08 0.06 86 1008.8
20260830173004 54 240 20.0 33.0 0.00 0.08 0.06 86 1008.7
20260830172004 54 248 21.0 30.0 0.00 0.08 0.06 88 1008.5
20260830171506 54 248 16.0 32.0 0.00 0.08 0.06 92 1008.4
20260830171005 54 258 14.0 26.0 0.00 0.08 0.06 93 1008.4
20260830165007 54 254 15.0 25.0 0.00 0.08 0.06 94 1008.0
20260830162507 54 254 19.0 32.0 0.02 0.08 0.06 95 1007.8
20260830161506 54 259 14.0 26.0 0.02 0.08 0.06 95 1007.7
20260830161008 54 257 16.0 25.0 0.02 0.08 0.06 95 1007.7
20260830160007 53 257 16.0 28.0 0.02 0.08 0.06 94 1007.8
20260830155507 53 253 14.0 29.0 0.02 0.08 0.06 94 1007.8
20260830154507 54 259 20.0 31.0 0.02 0.08 0.06 95 1007.9
20260830153507 55 234 19.0 32.0 0.01 0.07 0.06 94 1008.1
20260830153006 55 253 18.0 31.0 0.00 0.06 0.04 94 1008.0
20260830151507 54 250 20.0 31.0 0.00 0.06 0.04 94 1008.0
20260830150008 55 254 18.0 28.0 0.04 0.06 0.04 95 1007.9
20260830144006 54 270 13.0 30.0 0.04 0.06 0.04 95 1007.9
20260830142507 54 253 16.0 28.0 0.04 0.06 0.04 94 1008.3
20260830142006 54 258 17.0 30.0 0.04 0.06 0.04 94 1007.9
20260830141506 54 260 17.0 29.0 0.04 0.06 0.04 94 1008.2
20260830140508 55 248 22.0 36.0 0.01 0.04 0.02 94 1008.2
20260830135506 55 253 13.0 31.0 0.00 0.03 0.01 93 1008.4
20260830132506 55 247 20.0 43.0 0.00 0.02 0.00 92 1008.4
20260830132008 55 248 17.0 32.0 0.00 0.02 0.00 92 1008.1
20260830131007 55 258 16.0 25.0 0.00 0.02 0.00 92 1008.2
20260830130007 55 254 16.0 30.0 0.00 0.02 0.00 91 1008.0